Regional Weather Roundup
Issued by NWS

Home | Current Version | Previous Version | Graphics & Text | Print | Product List | Glossary On
Versions: 1 2 3 4 5 6 7 8 9 10 11 12 13 14 15 16 17 18 19 20 21 22 23 24 25 26 27 28 29 30 31 32 33 34 35 36 37 38 39 40 41 42 43 44 45 46 47 48 49 50
576
ASUS45 KBOU 040507
RWRCO

WEATHER ROUNDUP FOR COLORADO
NATIONAL WEATHER SERVICE DENVER/BOULDER CO
1100 PM MDT TUE MAY 03 2016

NOTE: "FAIR" INDICATES FEW OR NO CLOUDS BELOW 12000 FEET WITH NO
SIGNIFICANT WEATHER AND/OR OBSTRUCTIONS TO VISIBILITY.

COZ001>005-013-030-031-040600-
...NORTHWEST COLORADO...

CITY           SKY/WX    TMP DP  RH WIND       PRES   REMARKS
CRAIG          FAIR      41  35  79 CALM      30.28R
HAYDEN         FAIR      48  28  46 CALM      30.29R
MEEKER         FAIR      48  31  51 CALM      30.29R
MOUNT WERNER   NOT AVBL
STEAMBOAT SPGS FAIR      45  32  60 CALM      30.31R
WALDEN         FAIR      41  28  60 NW5       30.37S
$$

COZ006>008-011-040600-
...WEST CENTRAL VALLEYS...

CITY           SKY/WX    TMP DP  RH WIND       PRES   REMARKS
GRAND JUNCTION FAIR      56  34  43 CALM      30.17R
MONTROSE       FAIR      51  30  44 SE10      30.25R
EAGLE          FAIR      48  27  43 CALM      30.31R
RIFLE          FAIR      50  33  52 E5        30.22R
DELTA          NOT AVBL
NUCLA          NOT AVBL
$$

COZ017>023-064>068-040600-
...SOUTHWEST COLORADO...

CITY           SKY/WX    TMP DP  RH WIND       PRES   REMARKS
DURANGO        FAIR      47  37  68 N10       30.28R
CORTEZ         FAIR      45  31  58 E7        30.25R
PAGOSA SPRINGS FAIR      43  31  63 CALM      30.34S
TELLURIDE      FAIR      44  25  47 SE7       30.41R
WOLF CREEK PAS FAIR      32  23  69 SW8       30.55S WCI  25
$$

COZ009-010-012-014-032>034-037-058>063-040600-
...CENTRAL COLORADO...

CITY           SKY/WX    TMP DP  RH WIND       PRES   REMARKS
ASPEN          FAIR      43  24  47 S7        30.34R
BUENA VISTA    FAIR      39  26  58 W3        30.37R
COPPER MTN     NOT AVBL
BERTHOUD PASS  FAIR      28  18  64 NW17      30.53R WCI  16
COTTONWOOD PAS FAIR      45  10  24 W3        30.44S
GUNNISON       FAIR      46  19  34 SW8       30.36R
KREMMLING      FAIR      39  23  52 CALM      30.35R
LEADVILLE      FAIR      33  14  45 CALM      30.43R
MONARCH PASS   FAIR      34  14  44 S7        30.62S WCI  28
SALIDA         FAIR      44  26  48 W7        30.42R
SUNLIGHT       FAIR      41  23  48 NE6       30.51R
WILKERSON PASS FAIR      32  19  59 SE3       30.52S
$$

COZ069>075-040600-
...SAN LUIS VALLEY/SANGRE DE CRISTO MOUNTAINS...

CITY           SKY/WX    TMP DP  RH WIND       PRES   REMARKS
ALAMOSA        FAIR      42  27  55 SE9       30.32S
LA VETA PASS   FAIR      34  23  64 NE8       30.45S WCI  27
SAGUACHE       FAIR      43  25  49 N8        30.35R
$$

COZ035-036-038>040-040600-
...NORTHERN COLORADO FRONT RANGE...

CITY           SKY/WX    TMP DP  RH WIND       PRES   REMARKS
DENVER INTL AP FAIR      53  32  44 W6        30.25S
DMNS CITY PARK   N/A     50  34  53 SE7       30.26S
AURORA         FAIR      48  34  58 S6        30.27S
FRONT RANGE AP NOT AVBL
ERIE MUNI ARPT FAIR      48  35  60 CALM      30.25S
BOULDER MUN AP FAIR      54  30  40 SW8       30.25S
CENTENNIAL     FAIR      48  32  53 SW5       30.28R
BROOMFIELD     NOT AVBL
FORT COLLINS   FAIR      54  34  47 SW3       30.25S
LONGMONT       FAIR      50  35  55 W8        30.27R HAZE
$$

COZ041-046-047-076>085-087-088-040600-
...PIKES PEAK/PALMER DIVIDE AND SOUTHERN FOOTHILLS...

CITY           SKY/WX    TMP DP  RH WIND       PRES   REMARKS
COLO. SPRINGS  FAIR      49  26  41 NW8       30.31R
A. F. ACADEMY  FAIR      39  28  65 N7        30.31S
SCHRIEVER AFB  NOT AVBL
ELLICOTT       MIX PCPN   1  32 100 N5        30.28S WCI  -9
FALCON         FAIR      42  29  61 NW8       30.33S
FORT CARSON    FAIR      45  29  53 NW9       30.27S
LIMON          FAIR      41  36  82 W8        30.25R
MONUMENT HILL  FAIR      37  30  75 W6        30.33S
TRINIDAD       FAIR      41  33  73 NW9       30.29R
$$

COZ042>045-048>051-090-091-040600-
...NORTHEAST COLORADO...

CITY           SKY/WX    TMP DP  RH WIND       PRES   REMARKS
GREELEY ARPT   FAIR      46  37  71 NW8       30.23S
AKRON          FAIR      53  27  36 CALM      30.19S
BURLINGTON     FAIR      43  35  73 W9        30.17S
WRAY           NOT AVBL
STERLING       FAIR      46  36  66 CALM      30.16S
HOLYOKE        NOT AVBL
FORT MORGAN    FAIR      57  31  36 CALM      30.20S
$$

COZ086-089-092>099-040600-
...SOUTHEAST COLORADO...

CITY           SKY/WX    TMP DP  RH WIND       PRES   REMARKS
PUEBLO         FAIR      54  35  48 CALM      30.24R
LA JUNTA       FAIR      51  35  54 W8        30.20R
LAMAR          FAIR      43  36  76 S8        30.16R
SPRINGFIELD      N/A     43  33  68 W6        30.19S
$$




USA.gov is the U.S. government's official web portal to all federal, state and local government web resources and services.